Eindhoven, Netherlands

9:55 AM CEST on May 27, 2017 (GMT +0200)
Eindhoven Air Base

Weather History for EHEH - July, 2013

Change the Weather History Date:

Saturday, July 27, 2013

  Actual Average Record
Temperature  
Mean Temperature 71 °F -  
Max Temperature 79 °F 72 °F 86 °F (2001)
Min Temperature 63 °F 54 °F 48 °F (2004)
Cooling Degree Days 6    
Growing Degree Days 21 (Base 50)    
Moisture  
Dew Point 65 °F    
Average Humidity 86    
Maximum Humidity 100    
Minimum Humidity 65    
Precipitation  
Precipitation 0.59 in - - ()
Sea Level Pressure  
Sea Level Pressure 29.78 in    
Wind  
Wind Speed 4 mph ()    
Max Wind Speed 24 mph    
Max Gust Speed 52 mph    
Visibility 5.9 miles    
Events Rain , Thunderstorm    
Averages and records for this station are not official NWS values.
T = Trace of Precipitation, MM = Missing Value Source: Averaged Metar Reports

Daily Weather History Graph

Daily Weather History Graph

Search for Another Location

Airport or City:

Trip Planner

Search our weather history database for the weather conditions in past years. The results will help you decide how hot, cold, wet, or windy it might be!

Date:

Astronomy

Jul. 27, 2013 Rise Set
Actual Time 5:54 AM CEST 9:33 PM CEST
Civil Twilight 5:13 AM CEST 10:15 PM CEST
Nautical Twilight 4:16 AM CEST 11:11 PM CEST
Astronomical Twilight 2:47 AM CEST 12:37 AM CEST
Moon 11:22 PM CEST 12:05 PM CEST
Length of Visible Light 17h 02m
Length of Day
15h 38m
Waning Gibbous, 73% of the Moon is Illuminated
Jul 27
Waning Gibbous
Jul 29
Last Quarter
Aug 6
New
Aug 14
First Quarter
Aug 21
Full

Hourly Weather History & Observations

Time (CEST) Temp. Dew Point Humidity Pressure Visibility Wind Dir Wind Speed Gust Speed Precip Events Conditions
12:25 AM 69.8 °F 64.4 °F 83% 29.86 in 6.2 mi North 1.2 mph - N/A   Overcast
12:55 AM 68.0 °F 64.4 °F 88% 29.86 in 6.2 mi ENE 1.2 mph - N/A   Overcast
1:17 AM 68.0 °F 64.4 °F 88% 29.86 in 2.5 mi ENE 2.3 mph - N/A   Overcast
1:21 AM 68.0 °F 64.4 °F 88% 29.86 in 6.2 mi ENE 1.2 mph - N/A   Overcast
1:25 AM 68.0 °F 64.4 °F 88% 29.86 in 6.2 mi East 1.2 mph - N/A   Overcast
1:36 AM 68.0 °F 64.4 °F 88% 29.86 in 6.2 mi Calm Calm - N/A   Overcast
1:55 AM 66.2 °F 64.4 °F 94% 29.86 in 6.2 mi SE 1.2 mph - N/A   Overcast
2:00 AM 67 °F 65 °F 90% 29.87 in 11 mi Calm Calm - -   Partly Cloudy
2:01 AM 68.0 °F 64.4 °F 88% 29.86 in 4.3 mi East 1.2 mph - N/A   Overcast
2:02 AM 68.0 °F 64.4 °F 88% 29.86 in 6.2 mi NE 1.2 mph - N/A   Overcast
2:18 AM 66.2 °F 64.4 °F 94% 29.86 in 6.2 mi NNE 1.2 mph - N/A   Mostly Cloudy
2:25 AM 66.2 °F 64.4 °F 94% 29.86 in 6.2 mi North 1.2 mph - N/A   Mostly Cloudy
2:55 AM 66.2 °F 64.4 °F 94% 29.86 in 6.2 mi NW 1.2 mph - N/A   Overcast
3:25 AM 66.2 °F 64.4 °F 94% 29.86 in 6.2 mi NNW 1.2 mph - N/A   Mostly Cloudy
3:55 AM 66.2 °F 64.4 °F 94% 29.83 in 6.2 mi North 1.2 mph - N/A   Unknown
4:25 AM 64.4 °F 64.4 °F 100% 29.83 in 6.2 mi NNE 3.5 mph - N/A   Unknown
4:55 AM 64.4 °F 62.6 °F 94% 29.83 in 6.2 mi NE 2.3 mph - N/A   Unknown
5:00 AM 65 °F 63 °F 92% 29.83 in 7 mi NNE 2.2 mph - -  
5:20 AM 64.4 °F 62.6 °F 94% 29.83 in - North 3.5 mph - N/A   Mist
5:25 AM 64.4 °F 62.6 °F 94% 29.83 in 5.0 mi NNE 2.3 mph - N/A   Mist
5:39 AM 64.4 °F 62.6 °F 94% 29.83 in 6.2 mi NNE 2.3 mph - N/A   Unknown
5:55 AM 64.4 °F 62.6 °F 94% 29.83 in 6.2 mi North 1.2 mph - N/A   Unknown
6:02 AM 64.4 °F 64.4 °F 100% 29.83 in 3.7 mi NNE 1.2 mph - N/A   Mist
6:07 AM 64.4 °F 64.4 °F 100% 29.83 in 6.2 mi ENE 1.2 mph - N/A   Partly Cloudy
6:11 AM 64.4 °F 62.6 °F 94% 29.83 in 3.7 mi East 1.2 mph - N/A   Partly Cloudy
6:16 AM 64.4 °F 62.6 °F 94% 29.83 in 5.0 mi East 2.3 mph - N/A   Mist
6:21 AM 64.4 °F 62.6 °F 94% 29.83 in 3.7 mi ENE 2.3 mph - N/A   Partly Cloudy
6:25 AM 64.4 °F 64.4 °F 100% 29.83 in 3.7 mi NE 2.3 mph - N/A   Partly Cloudy
6:34 AM 64.4 °F 64.4 °F 100% 29.83 in 5.0 mi NE 2.3 mph - N/A   Mist
6:42 AM 64.4 °F 64.4 °F 100% 29.80 in 4.3 mi ENE 2.3 mph - N/A   Mist
6:43 AM 66.2 °F 64.4 °F 94% 29.80 in 5.0 mi ENE 2.3 mph - N/A   Mist
6:50 AM 66.2 °F 66.2 °F 100% 29.80 in 4.3 mi ENE 2.3 mph - N/A   Mist
6:55 AM 68.0 °F 66.2 °F 94% 29.80 in 5.0 mi East 2.3 mph - N/A   Mist
6:59 AM 68.0 °F 66.2 °F 94% 29.80 in 4.3 mi East 2.3 mph - N/A   Mist
7:07 AM 69.8 °F 68.0 °F 94% 29.80 in 5.0 mi East 2.3 mph - N/A   Mist
7:20 AM 71.6 °F 68.0 °F 88% 29.80 in 5.0 mi East 2.3 mph - N/A   Mist
7:25 AM 71.6 °F 68.0 °F 88% 29.80 in 5.0 mi East 3.5 mph - N/A   Partly Cloudy
7:36 AM 71.6 °F 66.2 °F 83% 29.80 in 5.6 mi East 4.6 mph - N/A   Scattered Clouds
7:55 AM 73.4 °F 66.2 °F 78% 29.77 in 5.6 mi East 3.5 mph - N/A   Partly Cloudy
8:00 AM 73 °F 67 °F 75% 29.80 in 6 mi East 4.5 mph - -   Partly Cloudy
8:25 AM 73.4 °F 66.2 °F 78% 29.80 in 6.2 mi SE 3.5 mph - N/A   Partly Cloudy
8:55 AM 75.2 °F 66.2 °F 73% 29.77 in 6.2 mi SE 4.6 mph - N/A   Scattered Clouds
9:25 AM 77.0 °F 66.2 °F 69% 29.77 in 6.2 mi East 3.5 mph - N/A   Partly Cloudy
9:55 AM 78.8 °F 66.2 °F 65% 29.77 in 6.2 mi East 3.5 mph - N/A   Scattered Clouds
10:25 AM 78.8 °F 66.2 °F 65% 29.77 in 6.2 mi ESE 5.8 mph - N/A   Mostly Cloudy
10:27 AM 78.8 °F 66.2 °F 65% 29.77 in 6.2 mi ESE 5.8 mph - N/A Thunderstorm Thunderstorm
10:39 AM 78.8 °F 66.2 °F 65% 29.77 in 6.2 mi SE 4.6 mph - N/A Thunderstorm Thunderstorm
10:40 AM 78.8 °F 66.2 °F 65% 29.80 in 6.2 mi SSE 5.8 mph - N/A Rain , Thunderstorm Light Thunderstorms and Rain
10:50 AM 73.4 °F 62.6 °F 69% 29.80 in 4.3 mi South 12.7 mph 51.8 mph N/A Rain , Thunderstorm Light Thunderstorms and Rain
10:55 AM 64.4 °F 59.0 °F 83% 29.86 in 0.9 mi South 24.2 mph - N/A Rain , Thunderstorm Heavy Thunderstorms and Rain
11:00 AM 64 °F 62 °F 91% 29.86 in 1 mi SSW 15.7 mph - - Rain , Thunderstorm Light Thunderstorms and Rain
11:03 AM 64.4 °F 62.6 °F 94% 29.86 in - SSW 16.1 mph 33.4 mph N/A Rain , Thunderstorm Heavy Thunderstorms and Rain
11:07 AM 64.4 °F 62.6 °F 94% 29.86 in 3.1 mi SSW 11.5 mph - N/A Rain , Thunderstorm Heavy Thunderstorms and Rain
11:08 AM 64.4 °F 62.6 °F 94% 29.83 in 4.3 mi SSW 10.4 mph - N/A Rain , Thunderstorm Heavy Thunderstorms and Rain
11:13 AM 64.4 °F 62.6 °F 94% 29.83 in 5.0 mi SSW 9.2 mph - N/A Rain , Thunderstorm Thunderstorms and Rain
11:17 AM 64.4 °F 62.6 °F 94% 29.83 in 5.6 mi SSW 9.2 mph - N/A Rain , Thunderstorm Thunderstorms and Rain
11:25 AM 64.4 °F 62.6 °F 94% 29.83 in 6.2 mi South 5.8 mph - N/A Rain , Thunderstorm Light Thunderstorms and Rain
11:29 AM 64.4 °F 62.6 °F 94% 29.83 in 3.7 mi South 5.8 mph - N/A Rain , Thunderstorm Thunderstorms and Rain
11:33 AM 64.4 °F 62.6 °F 94% 29.83 in 6.2 mi South 4.6 mph - N/A Rain , Thunderstorm Thunderstorms and Rain
11:42 AM 64.4 °F 64.4 °F 100% 29.80 in 6.2 mi SE 4.6 mph - N/A Rain , Thunderstorm Thunderstorms and Rain
11:46 AM 64.4 °F 64.4 °F 100% 29.80 in 6.2 mi SE 4.6 mph - N/A Rain , Thunderstorm Thunderstorms and Rain
11:47 AM 64.4 °F 64.4 °F 100% 29.80 in 6.2 mi ESE 4.6 mph - N/A Rain , Thunderstorm Light Thunderstorms and Rain
11:55 AM 64.4 °F 64.4 °F 100% 29.80 in 6.2 mi East 4.6 mph - N/A Rain , Thunderstorm Light Thunderstorms and Rain
11:59 AM 66.2 °F 64.4 °F 94% 29.80 in 6.2 mi ESE 4.6 mph - N/A Rain , Thunderstorm Light Thunderstorms and Rain
12:03 PM 66.2 °F 64.4 °F 94% 29.80 in 6.2 mi SE 4.6 mph - N/A Rain , Thunderstorm Light Thunderstorms and Rain
12:16 PM 66.2 °F 64.4 °F 94% 29.80 in 6.2 mi SE 3.5 mph - N/A Rain , Thunderstorm Light Thunderstorms and Rain
12:20 PM 66.2 °F 64.4 °F 94% 29.80 in 6.2 mi ESE 4.6 mph - N/A Rain , Thunderstorm Light Thunderstorms and Rain
12:25 PM 66.2 °F 64.4 °F 94% 29.77 in 6.2 mi East 6.9 mph - N/A Rain , Thunderstorm Light Thunderstorms and Rain
12:30 PM 66.2 °F 64.4 °F 94% 29.77 in 6.2 mi East 8.1 mph - N/A Rain , Thunderstorm Light Thunderstorms and Rain
12:35 PM 66.2 °F 64.4 °F 94% 29.77 in 6.2 mi ENE 6.9 mph - N/A Rain , Thunderstorm Light Thunderstorms and Rain
12:43 PM 66.2 °F 64.4 °F 94% 29.74 in 6.2 mi NE 6.9 mph - N/A Rain , Thunderstorm Light Thunderstorms and Rain
12:51 PM 66.2 °F 64.4 °F 94% 29.74 in 6.2 mi NNE 8.1 mph - N/A Rain , Thunderstorm Light Thunderstorms and Rain
12:55 PM 66.2 °F 64.4 °F 94% 29.74 in 6.2 mi NNE 8.1 mph - N/A Thunderstorm Thunderstorm
1:16 PM 68.0 °F 66.2 °F 94% 29.74 in 6.2 mi North 6.9 mph - N/A   Overcast
1:25 PM 69.8 °F 66.2 °F 88% 29.74 in 6.2 mi North 6.9 mph - N/A   Overcast
1:32 PM 69.8 °F 66.2 °F 88% 29.74 in 6.2 mi NNE 6.9 mph - N/A   Mostly Cloudy
1:38 PM 69.8 °F 66.2 °F 88% 29.74 in 6.2 mi NE 8.1 mph - N/A   Mostly Cloudy
1:55 PM 71.6 °F 66.2 °F 83% 29.74 in 6.2 mi NE 3.5 mph - N/A   Scattered Clouds
2:00 PM 71 °F 66 °F 81% 29.75 in 22 mi 2.2 mph - -   Partly Cloudy
2:25 PM 73.4 °F 68.0 °F 83% 29.74 in 6.2 mi SSE 2.3 mph - N/A   Mostly Cloudy
2:29 PM 73.4 °F 66.2 °F 78% 29.74 in 6.2 mi South 3.5 mph - N/A   Mostly Cloudy
2:55 PM 73.4 °F 64.4 °F 73% 29.74 in 6.2 mi SSW 4.6 mph - N/A   Scattered Clouds
2:59 PM 73.4 °F 66.2 °F 78% 29.74 in 6.2 mi South 4.6 mph - N/A   Scattered Clouds
3:03 PM 73.4 °F 66.2 °F 78% 29.74 in 6.2 mi South 4.6 mph - N/A   Mostly Cloudy
3:05 PM 73.4 °F 66.2 °F 78% 29.74 in 6.2 mi South 4.6 mph - N/A   Mostly Cloudy
3:12 PM 73.4 °F 66.2 °F 78% 29.74 in 6.2 mi South 5.8 mph - N/A   Mostly Cloudy
3:15 PM 73.4 °F 66.2 °F 78% 29.74 in 6.2 mi South 5.8 mph - N/A   Mostly Cloudy
3:25 PM 73.4 °F 66.2 °F 78% 29.74 in 6.2 mi South 6.9 mph - N/A   Mostly Cloudy
3:55 PM 73.4 °F 66.2 °F 78% 29.74 in 6.2 mi WSW 8.1 mph - N/A   Overcast
4:25 PM 75.2 °F 66.2 °F 73% 29.74 in 6.2 mi West 6.9 mph - N/A   Scattered Clouds
4:26 PM 75.2 °F 66.2 °F 73% 29.74 in 6.2 mi West 6.9 mph - N/A   Scattered Clouds
4:55 PM 75.2 °F 66.2 °F 73% 29.74 in 6.2 mi West 6.9 mph - N/A   Scattered Clouds
5:00 PM 76 °F 67 °F 67% 29.75 in 19 mi WNW 4.5 mph - -   Scattered Clouds
5:25 PM 75.2 °F 66.2 °F 73% 29.74 in 6.2 mi West 4.6 mph - N/A   Mostly Cloudy
5:55 PM 77.0 °F 66.2 °F 69% 29.74 in 6.2 mi NW 4.6 mph - N/A   Scattered Clouds
6:25 PM 77.0 °F 66.2 °F 69% 29.71 in 6.2 mi North 2.3 mph - N/A   Partly Cloudy
6:55 PM 77.0 °F 66.2 °F 69% 29.71 in 6.2 mi West 2.3 mph - N/A   Unknown
7:25 PM 75.2 °F 66.2 °F 73% 29.71 in 6.2 mi North 2.3 mph - N/A   Unknown
7:55 PM 77.0 °F 68.0 °F 74% 29.68 in 6.2 mi North 4.6 mph - N/A   Mostly Cloudy
8:00 PM 76 °F 67 °F 66% 29.71 in 22 mi NNW 4.5 mph - -   Partly Cloudy
8:25 PM 75.2 °F 68.0 °F 78% 29.68 in 6.2 mi North 4.6 mph - N/A   Unknown
8:55 PM 73.4 °F 66.2 °F 78% 29.68 in 6.2 mi NE 6.9 mph - N/A   Unknown
9:25 PM 71.6 °F 66.2 °F 83% 29.68 in 6.2 mi NNE 8.1 mph - N/A   Overcast
9:55 PM 73.4 °F 66.2 °F 78% 29.68 in 6.2 mi ENE 5.8 mph - N/A   Overcast
10:25 PM 71.6 °F 66.2 °F 83% 29.65 in 6.2 mi NE 6.9 mph - N/A   Mostly Cloudy
10:55 PM 71.6 °F 66.2 °F 83% 29.65 in 6.2 mi NE 8.1 mph - N/A   Scattered Clouds
11:00 PM 72 °F 66 °F 77% 29.66 in 11 mi NE 6.7 mph - -   Mostly Cloudy
11:03 PM 71.6 °F 66.2 °F 83% 29.65 in 6.2 mi NE 8.1 mph - N/A   Overcast
11:25 PM 71.6 °F 66.2 °F 83% 29.65 in 6.2 mi ENE 8.1 mph - N/A   Overcast
11:28 PM 73.4 °F 66.2 °F 78% 29.65 in 6.2 mi ENE 9.2 mph - N/A Thunderstorm Thunderstorm
11:35 PM 71.6 °F 66.2 °F 83% 29.65 in 6.2 mi ENE 9.2 mph - N/A Thunderstorm Thunderstorm
11:40 PM 71.6 °F 66.2 °F 83% 29.65 in 6.2 mi ENE 8.1 mph - N/A Thunderstorm Thunderstorm
11:55 PM 71.6 °F 66.2 °F 83% 29.65 in 6.2 mi ENE 6.9 mph - N/A   Overcast